DW6561 Weather Reports


Display with metric or nautical units.
time (UTC)temp
F
wind
direction
speed
MPH
gust
MPH
rain 1hr
in
rain 24hr
in
rain mn
in
humidity
%
barometer
mb
20260506090006 65 175 6.0 13.0 0.00 0.00 0.00 59 1011.5
20260506084507 65 164 7.0 14.0 0.00 0.00 0.00 56 1011.3
20260506083003 67 153 6.0 12.0 0.00 0.00 0.00 54 1011.2
20260506081509 68 212 4.0 14.0 0.00 0.00 0.00 50 1011.1
20260506073003 70 142 4.0 12.0 0.00 0.00 0.00 46 1011.1
20260506071503 69 161 4.0 12.0 0.00 0.00 0.00 47 1011.1
20260506061503 70 139 2.0 8.0 0.00 0.00 0.00 48 1011.0
20260506044510 70 101 1.0 4.0 0.00 0.00 0.00 47 1011.0
20260506043008 70 131 1.0 8.0 0.00 0.00 0.00 45 1010.9
20260506041508 71 161 2.0 7.0 0.00 0.00 0.00 45 1010.8
20260506040005 72 132 3.0 8.0 0.00 0.00 0.00 44 1010.8
20260506034510 73 138 2.0 6.0 0.00 0.00 0.00 42 1010.7
20260506033010 74 134 1.0 6.0 0.00 0.00 0.00 42 1010.6
20260506031522 76 136 2.0 6.0 0.00 0.00 0.00 41 1010.3
20260506024509 78 116 1.0 3.0 0.00 0.00 0.00 37 1010.1
20260506023007 79 167 1.0 4.0 0.00 0.00 0.00 35 1010.1
20260506021513 80 107 0.0 4.0 0.00 0.00 0.00 34 1010.1
20260506020023 81 112 1.0 4.0 0.00 0.00 0.00 34 1010.1
20260506014533 82 299 0.0 2.0 0.00 0.00 0.00 31 1010.0
20260506013017 82 303 0.0 2.0 0.00 0.00 0.00 28 1010.0
20260506011514 82 352 0.0 3.0 0.00 0.00 0.00 29 1010.1
20260506004534 84 219 0.0 2.0 0.00 0.00 0.00 30 1010.2
20260506003028 84 296 0.0 2.0 0.00 0.00 0.00 28 1010.3
20260506001513 85 294 0.0 2.0 0.00 0.00 0.00 27 1010.4
20260506000020 85 327 0.0 2.0 0.00 0.00 0.00 27 1010.5
20260505234520 86 109 0.0 3.0 0.00 0.00 0.00 28 1010.6
20260505233009 86 271 0.0 3.0 0.00 0.00 0.00 29 1010.8
20260505231508 86 304 0.0 3.0 0.00 0.00 0.00 29 1011.0
20260505224506 85 334 0.0 3.0 0.00 0.00 0.00 30 1011.2
20260505223007 85 329 0.0 2.0 0.00 0.00 0.00 31 1011.3
20260505221516 84 78 0.0 4.0 0.00 0.00 0.00 31 1011.4
20260505220027 84 186 0.0 2.0 0.00 0.00 0.00 33 1011.6
20260505214519 84 305 0.0 4.0 0.00 0.00 0.00 32 1011.6
20260505211506 82 298 1.0 3.0 0.00 0.00 0.00 34 1011.8
20260505210012 82 258 0.0 4.0 0.00 0.00 0.00 35 1011.9
20260505204520 82 296 0.0 3.0 0.00 0.00 0.00 37 1012.1
20260505203022 82 310 0.0 3.0 0.00 0.00 0.00 36 1012.1
20260505201541 81 319 0.0 4.0 0.00 0.00 0.00 37 1012.2
20260505200010 80 327 0.0 3.0 0.00 0.00 0.00 36 1012.2
20260505194516 79 276 0.0 2.0 0.00 0.00 0.00 41 1012.4
20260505193032 78 331 0.0 3.0 0.00 0.00 0.00 39 1012.4
20260505190031 78 319 0.0 3.0 0.00 0.00 0.00 41 1012.5
20260505184510 77 331 1.0 6.0 0.00 0.00 0.00 41 1012.5
20260505183031 76 295 0.0 4.0 0.00 0.00 0.00 42 1012.6
20260505181521 75 315 0.0 3.0 0.00 0.00 0.00 41 1012.6
20260505180030 74 331 1.0 5.0 0.00 0.00 0.00 42 1012.5
20260505174527 73 329 0.0 3.0 0.00 0.00 0.00 43 1012.5
20260505173003 73 322 0.0 6.0 0.00 0.00 0.00 45 1012.5
20260505171512 72 299 0.0 4.0 0.00 0.00 0.00 46 1012.4
20260505170011 71 324 0.0 2.0 0.00 0.00 0.00 46 1012.3
20260505163003 70 335 0.0 3.0 0.00 0.00 0.00 47 1012.1
20260505161503 69 336 0.0 3.0 0.00 0.00 0.00 53 1011.9
20260505151508 62 345 0.0 1.0 0.00 0.00 0.00 60 1011.5
20260505124505 57 219 0.0 0.0 0.00 0.00 0.00 70 1009.8
20260505123010 57 219 0.0 0.0 0.00 0.00 0.00 69 1009.6
20260505121512 58 219 0.0 0.0 0.00 0.00 0.00 67 1009.4
20260505120014 58 219 0.0 2.0 0.00 0.00 0.00 66 1009.3
20260505114507 59 219 0.0 0.0 0.00 0.00 0.00 65 1009.3
20260505113018 60 219 0.0 1.0 0.00 0.00 0.00 62 1009.1
20260505111516 61 232 0.0 0.0 0.00 0.00 0.00 60 1008.9
20260505101510 63 163 1.0 6.0 0.00 0.00 0.00 60 1007.9
20260505100016 63 175 2.0 6.0 0.00 0.00 0.00 59 1007.7
20260505094524 63 189 0.0 1.0 0.00 0.00 0.00 52 1007.7
20260505093022 64 213 0.0 0.0 0.00 0.00 0.00 51 1007.7
20260505091529 64 213 0.0 0.0 0.00 0.00 0.00 48 1007.8